 140.60556 , 35.78972 , 11 ,,,,,,
 8760 ,,,,,,,,
2004,4,1,1,3,1.5,282.85,9999,0
2004,4,1,2,3,1.9,282.65,9999,0
2004,4,1,3,3,1.1,282.35,9999,0
2004,4,1,4,4,.8,282.05,9999,0
2004,4,1,5,16,1.1,282.25,9999,0
2004,4,1,6,12,1.3,280.45,9999,1
2004,4,1,7,1,.7,281.75,9999,37
2004,4,1,8,2,1.8,284.65,9999,114
2004,4,1,9,3,1.6,285.65,9999,182
2004,4,1,10,5,1.5,286.25,9999,251
2004,4,1,11,10,2.6,287.15,9999,292
2004,4,1,12,10,2.9,288.45,9999,312
2004,4,1,13,8,2.6,289.15,9999,303
2004,4,1,14,7,3.8,289.05,9999,270
2004,4,1,15,7,5.3,289.05,9999,218
2004,4,1,16,6,4.1,288.05,9999,125
2004,4,1,17,6,4.3,287.35,9999,69
2004,4,1,18,5,2.5,286.05,9999,10
2004,4,1,19,6,1.7,285.45,9999,0
2004,4,1,20,6,3,285.95,9999,0
2004,4,1,21,5,3.7,286.75,9999,0
2004,4,1,22,5,4,287.15,9999,0
2004,4,1,23,5,4.7,287.55,9999,0
2004,4,1,24,5,5.1,287.75,9999,0
2004,4,2,1,5,5.8,287.85,9999,0
2004,4,2,2,5,5.7,287.15,9999,0
2004,4,2,3,6,5.9,287.45,9999,0
2004,4,2,4,7,7.4,287.55,9999,0
2004,4,2,5,9,4.2,287.25,9999,0
2004,4,2,6,9,6.1,287.35,9999,0
2004,4,2,7,8,6.7,288.05,9999,0
2004,4,2,8,8,4.5,287.25,9999,6
2004,4,2,9,8,5.5,287.65,9999,27
2004,4,2,10,8,4.8,288.25,9999,46
2004,4,2,11,8,6.3,288.65,9999,14
2004,4,2,12,8,5.8,288.15,9999,17
2004,4,2,13,8,7.5,290.15,9999,30
2004,4,2,14,8,9.1,293.15,9999,84
2004,4,2,15,8,7.9,294.65,9999,146
2004,4,2,16,10,7.4,295.05,9999,164
2004,4,2,17,10,7.8,293.25,9999,83
2004,4,2,18,10,5.2,291.45,9999,11
2004,4,2,19,11,5.1,290.55,9999,0
2004,4,2,20,13,2.9,286.25,9999,0
2004,4,2,21,14,1.4,284.85,9999,0
2004,4,2,22,13,3.3,283.95,9999,0
2004,4,2,23,12,2.1,286.25,9999,0
2004,4,2,24,6,1.4,285.75,9999,0
2004,4,3,1,12,1.9,285.05,9999,0
2004,4,3,2,13,2.4,284.25,9999,0
2004,4,3,3,13,3.6,284.45,9999,0
2004,4,3,4,13,3.9,284.25,9999,0
2004,4,3,5,13,4,283.75,9999,0
2004,4,3,6,13,4.3,283.95,9999,3
2004,4,3,7,13,3.7,285.05,9999,52
2004,4,3,8,13,3.6,286.55,9999,131
2004,4,3,9,13,6.1,287.95,9999,206
2004,4,3,10,12,3.4,288.45,9999,262
2004,4,3,11,10,1.8,289.85,9999,230
2004,4,3,12,8,4.7,290.75,9999,312
2004,4,3,13,8,4.4,291.05,9999,297
2004,4,3,14,7,5.4,290.65,9999,267
2004,4,3,15,6,5.3,290.05,9999,195
2004,4,3,16,5,4.1,289.55,9999,124
2004,4,3,17,5,3.9,288.95,9999,67
2004,4,3,18,5,2.1,287.75,9999,9
2004,4,3,19,1,2.7,285.05,9999,0
2004,4,3,20,2,4,284.45,9999,0
2004,4,3,21,2,5.4,284.05,9999,0
2004,4,3,22,1,3.8,283.15,9999,0
2004,4,3,23,1,3.6,283.25,9999,0
2004,4,3,24,1,4.4,282.35,9999,0
2004,4,4,1,1,3.2,282.25,9999,0
2004,4,4,2,1,3.4,282.35,9999,0
2004,4,4,3,1,3.8,282.05,9999,0
2004,4,4,4,1,3.9,281.75,9999,0
2004,4,4,5,2,3.9,281.25,9999,0
2004,4,4,6,2,4.6,281.25,9999,0
2004,4,4,7,2,4.1,281.35,9999,3
2004,4,4,8,2,4.4,281.75,9999,20
2004,4,4,9,2,5.2,281.55,9999,26
2004,4,4,10,2,4.7,281.25,9999,24
2004,4,4,11,2,4.9,281.15,9999,26
2004,4,4,12,1,4.5,280.35,9999,14
2004,4,4,13,1,3.7,279.55,9999,15
2004,4,4,14,1,2.7,279.45,9999,24
2004,4,4,15,1,4.6,279.45,9999,5
2004,4,4,16,1,4.7,279.35,9999,2
2004,4,4,17,16,6,278.95,9999,0
2004,4,4,18,16,6.1,278.35,9999,0
2004,4,4,19,16,6,277.95,9999,0
2004,4,4,20,16,6.3,277.95,9999,0
2004,4,4,21,16,5.2,278.05,9999,0
2004,4,4,22,16,4.2,277.95,9999,0
2004,4,4,23,15,4,277.85,9999,0
2004,4,4,24,15,4.3,277.95,9999,0
2004,4,5,1,15,4.4,278.15,9999,0
2004,4,5,2,15,4.5,277.75,9999,0
2004,4,5,3,15,5.3,278.35,9999,0
2004,4,5,4,14,2.2,277.95,9999,0
2004,4,5,5,14,2.8,277.75,9999,0
2004,4,5,6,14,4.1,277.95,9999,1
2004,4,5,7,15,3.6,279.35,9999,31
2004,4,5,8,15,4.2,280.15,9999,127
2004,4,5,9,16,5,282.55,9999,215
2004,4,5,10,16,4.8,282.85,9999,275
2004,4,5,11,16,4.6,283.85,9999,277
2004,4,5,12,1,3.1,284.85,9999,329
2004,4,5,13,2,3.8,284.95,9999,318
2004,4,5,14,2,3.6,285.35,9999,293
2004,4,5,15,2,2.7,284.85,9999,235
2004,4,5,16,3,2.3,284.45,9999,166
2004,4,5,17,4,2.8,283.55,9999,83
2004,4,5,18,5,1.5,282.35,9999,12
2004,4,5,19,6,1.1,281.45,9999,0
2004,4,5,20,6,1.3,280.95,9999,0
2004,4,5,21,4,1,280.45,9999,0
2004,4,5,22,4,1.1,279.35,9999,0
2004,4,5,23,5,1.2,278.55,9999,0
2004,4,5,24,6,1,278.15,9999,0
2004,4,6,1,6,1.7,277.65,9999,0
2004,4,6,2,6,1.7,277.25,9999,0
2004,4,6,3,6,1.9,276.75,9999,0
2004,4,6,4,8,2.1,277.05,9999,0
2004,4,6,5,8,2.1,277.95,9999,0
2004,4,6,6,8,2,279.65,9999,4
2004,4,6,7,9,3.6,284.15,9999,58
2004,4,6,8,9,4.1,286.85,9999,134
2004,4,6,9,9,6,288.65,9999,209
2004,4,6,10,8,6.9,289.65,9999,267
2004,4,6,11,8,6.9,290.55,9999,277
2004,4,6,12,7,7,291.65,9999,279
2004,4,6,13,8,6.7,291.35,9999,294
2004,4,6,14,7,7.5,291.25,9999,275
2004,4,6,15,7,7.4,290.75,9999,199
2004,4,6,16,8,7.5,289.85,9999,140
2004,4,6,17,8,6.3,289.35,9999,56
2004,4,6,18,8,4.8,288.35,9999,7
2004,4,6,19,8,3.7,287.75,9999,0
2004,4,6,20,8,3.2,286.65,9999,0
2004,4,6,21,8,2.9,286.25,9999,0
2004,4,6,22,8,3.2,286.05,9999,0
2004,4,6,23,8,3.2,285.65,9999,0
2004,4,6,24,8,3,285.25,9999,0
2004,4,7,1,8,3.9,284.85,9999,0
2004,4,7,2,9,2.5,284.75,9999,0
2004,4,7,3,8,2.4,283.35,9999,0
2004,4,7,4,9,2.8,283.65,9999,0
2004,4,7,5,9,2.9,283.35,9999,0
2004,4,7,6,8,2.4,283.45,9999,1
2004,4,7,7,9,2.3,284.55,9999,28
2004,4,7,8,9,3.1,287.25,9999,99
2004,4,7,9,11,3,289.05,9999,170
2004,4,7,10,10,2.8,290.35,9999,247
2004,4,7,11,10,2.7,291.85,9999,279
2004,4,7,12,8,3,292.85,9999,303
2004,4,7,13,7,4.9,293.85,9999,272
2004,4,7,14,7,4.2,294.15,9999,237
2004,4,7,15,9,4.4,294.65,9999,206
2004,4,7,16,8,5.3,294.55,9999,143
2004,4,7,17,8,4.4,292.95,9999,68
2004,4,7,18,8,4.1,291.95,9999,8
2004,4,7,19,8,2.6,290.25,9999,0
2004,4,7,20,9,2.6,289.85,9999,0
2004,4,7,21,9,5.4,290.25,9999,0
2004,4,7,22,9,6.6,290.75,9999,0
2004,4,7,23,9,5.3,290.65,9999,0
2004,4,7,24,14,1.7,287.55,9999,0
2004,4,8,1,2,3.4,284.55,9999,0
2004,4,8,2,2,3.6,284.45,9999,0
2004,4,8,3,2,4.6,284.65,9999,0
2004,4,8,4,1,4.7,282.75,9999,0
2004,4,8,5,1,4.2,281.85,9999,0
2004,4,8,6,1,5,281.45,9999,0
2004,4,8,7,1,5.1,280.85,9999,0
2004,4,8,8,1,4.7,280.65,9999,1
2004,4,8,9,1,3.7,280.65,9999,13
2004,4,8,10,1,3.1,282.75,9999,82
2004,4,8,11,1,3.8,284.15,9999,191
2004,4,8,12,2,3.8,284.45,9999,261
2004,4,8,13,2,2.2,285.15,9999,295
2004,4,8,14,2,2.2,285.45,9999,284
2004,4,8,15,3,3.2,285.45,9999,233
2004,4,8,16,4,3.7,284.45,9999,166
2004,4,8,17,4,2.8,284.15,9999,92
2004,4,8,18,5,1.5,282.95,9999,11
2004,4,8,19,7,1.7,282.35,9999,0
2004,4,8,20,0,0,281.65,9999,0
2004,4,8,21,5,.7,280.05,9999,0
2004,4,8,22,4,1.2,279.65,9999,0
2004,4,8,23,4,1.2,279.35,9999,0
2004,4,8,24,5,1.5,278.25,9999,0
2004,4,9,1,4,1.6,278.55,9999,0
2004,4,9,2,3,1.4,279.55,9999,0
2004,4,9,3,3,1.5,280.95,9999,0
2004,4,9,4,4,1.5,279.35,9999,0
2004,4,9,5,3,1.8,279.65,9999,0
2004,4,9,6,4,1.8,279.05,9999,3
2004,4,9,7,4,1.4,283.05,9999,64
2004,4,9,8,7,3.1,284.75,9999,97
2004,4,9,9,8,4.2,288.35,9999,187
2004,4,9,10,8,5.2,289.65,9999,267
2004,4,9,11,7,5,289.35,9999,309
2004,4,9,12,8,5.8,291.45,9999,323
2004,4,9,13,7,5.5,290.75,9999,312
2004,4,9,14,8,6,291.65,9999,281
2004,4,9,15,8,7,291.45,9999,237
2004,4,9,16,8,6.1,290.55,9999,166
2004,4,9,17,8,6.3,289.65,9999,85
2004,4,9,18,8,4.9,289.05,9999,15
2004,4,9,19,8,3.1,288.35,9999,0
2004,4,9,20,8,2.3,287.25,9999,0
2004,4,9,21,7,1.7,285.55,9999,0
2004,4,9,22,10,1.5,284.45,9999,0
2004,4,9,23,7,.9,283.35,9999,0
2004,4,9,24,0,0,283.35,9999,0
2004,4,10,1,5,.7,282.15,9999,0
2004,4,10,2,0,0,281.85,9999,0
2004,4,10,3,0,0,281.85,9999,0
2004,4,10,4,14,1.3,280.85,9999,0
2004,4,10,5,16,1.8,280.85,9999,0
2004,4,10,6,16,1.2,281.15,9999,4
2004,4,10,7,16,2.4,283.95,9999,62
2004,4,10,8,3,1.9,286.45,9999,142
2004,4,10,9,2,3.7,288.55,9999,217
2004,4,10,10,3,2.6,289.45,9999,274
2004,4,10,11,5,3.3,290.15,9999,316
2004,4,10,12,2,2.6,290.85,9999,330
2004,4,10,13,3,3.4,289.95,9999,318
2004,4,10,14,4,3.1,290.35,9999,284
2004,4,10,15,6,3,290.55,9999,234
2004,4,10,16,6,3.6,290.55,9999,167
2004,4,10,17,6,3.4,289.65,9999,88
2004,4,10,18,7,2.6,288.35,9999,12
2004,4,10,19,7,1.8,287.65,9999,0
2004,4,10,20,7,1.4,287.25,9999,0
2004,4,10,21,2,.6,286.55,9999,0
2004,4,10,22,6,.9,285.75,9999,0
2004,4,10,23,5,1.6,284.55,9999,0
2004,4,10,24,6,1.6,283.55,9999,0
2004,4,11,1,5,1.1,283.45,9999,0
2004,4,11,2,6,1.1,282.65,9999,0
2004,4,11,3,6,1.7,282.25,9999,0
2004,4,11,4,0,0,282.05,9999,0
2004,4,11,5,0,0,281.85,9999,0
2004,4,11,6,6,.7,282.25,9999,3
2004,4,11,7,7,1.4,283.75,9999,41
2004,4,11,8,6,2,288.65,9999,102
2004,4,11,9,6,2.3,291.55,9999,133
2004,4,11,10,9,2.8,292.85,9999,244
2004,4,11,11,6,4,293.65,9999,223
2004,4,11,12,6,4,293.45,9999,201
2004,4,11,13,6,3.3,291.05,9999,193
2004,4,11,14,4,3.2,290.25,9999,159
2004,4,11,15,2,4,290.75,9999,90
2004,4,11,16,2,2.6,289.65,9999,64
2004,4,11,17,3,2,288.15,9999,41
2004,4,11,18,1,1.9,286.75,9999,5
2004,4,11,19,1,1.3,286.05,9999,0
2004,4,11,20,1,.8,285.65,9999,0
2004,4,11,21,16,1.2,285.45,9999,0
2004,4,11,22,16,.9,284.95,9999,0
2004,4,11,23,0,0,284.35,9999,0
2004,4,11,24,8,2,284.05,9999,0
2004,4,12,1,8,.9,283.95,9999,0
2004,4,12,2,7,1.4,283.15,9999,0
2004,4,12,3,8,1.1,282.95,9999,0
2004,4,12,4,10,1.1,282.75,9999,0
2004,4,12,5,12,1.6,282.35,9999,0
2004,4,12,6,15,1.1,282.75,9999,5
2004,4,12,7,15,.8,284.45,9999,53
2004,4,12,8,15,1.5,286.95,9999,126
2004,4,12,9,1,1.6,290.25,9999,194
2004,4,12,10,8,1.3,292.55,9999,249
2004,4,12,11,7,2.9,294.15,9999,290
2004,4,12,12,7,2.5,295.05,9999,300
2004,4,12,13,7,4.1,296.55,9999,283
2004,4,12,14,7,4.9,295.65,9999,259
2004,4,12,15,7,4.9,294.75,9999,190
2004,4,12,16,8,3.5,294.95,9999,141
2004,4,12,17,6,2.1,293.85,9999,55
2004,4,12,18,7,2.2,292.55,9999,8
2004,4,12,19,7,1.3,291.35,9999,0
2004,4,12,20,8,1,291.25,9999,0
2004,4,12,21,15,1.7,290.85,9999,0
2004,4,12,22,0,0,290.15,9999,0
2004,4,12,23,1,1.3,288.95,9999,0
2004,4,12,24,16,4.1,284.75,9999,0
2004,4,13,1,16,5,283.65,9999,0
2004,4,13,2,16,6.3,282.95,9999,0
2004,4,13,3,1,5.5,282.45,9999,0
2004,4,13,4,1,5.4,282.55,9999,0
2004,4,13,5,1,5.2,281.95,9999,0
2004,4,13,6,1,4.5,282.35,9999,3
2004,4,13,7,1,4.3,282.95,9999,47
2004,4,13,8,1,4.7,283.05,9999,84
2004,4,13,9,1,4,283.35,9999,132
2004,4,13,10,2,4.7,283.55,9999,141
2004,4,13,11,2,5.1,284.25,9999,133
2004,4,13,12,2,5.5,284.55,9999,156
2004,4,13,13,1,3.8,283.55,9999,124
2004,4,13,14,2,4.3,284.35,9999,92
2004,4,13,15,2,4.2,284.05,9999,62
2004,4,13,16,2,3.7,283.95,9999,55
2004,4,13,17,2,4.4,283.35,9999,28
2004,4,13,18,2,3.8,282.75,9999,9
2004,4,13,19,2,2.1,282.35,9999,0
2004,4,13,20,1,2.9,282.35,9999,0
2004,4,13,21,16,3.5,282.95,9999,0
2004,4,13,22,1,3.3,282.95,9999,0
2004,4,13,23,1,2.9,283.05,9999,0
2004,4,13,24,16,3.6,282.65,9999,0
2004,4,14,1,16,2.6,282.45,9999,0
2004,4,14,2,15,1.8,282.45,9999,0
2004,4,14,3,16,1.9,282.35,9999,0
2004,4,14,4,15,2.3,282.15,9999,0
2004,4,14,5,15,1.4,281.65,9999,0
2004,4,14,6,14,2.5,281.85,9999,1
2004,4,14,7,15,2.3,282.65,9999,27
2004,4,14,8,15,2.4,284.55,9999,60
2004,4,14,9,16,2.6,285.35,9999,106
2004,4,14,10,14,1.3,286.25,9999,188
2004,4,14,11,7,1.4,288.65,9999,214
2004,4,14,12,8,1.4,290.15,9999,183
2004,4,14,13,3,2.1,288.75,9999,66
2004,4,14,14,4,2.1,288.45,9999,128
2004,4,14,15,2,1.9,287.75,9999,54
2004,4,14,16,1,1.4,287.15,9999,42
2004,4,14,17,1,1.7,286.55,9999,8
2004,4,14,18,16,1.6,286.05,9999,1
2004,4,14,19,16,1.6,285.95,9999,0
2004,4,14,20,16,1.6,285.85,9999,0
2004,4,14,21,16,1.2,285.85,9999,0
2004,4,14,22,8,1.2,285.85,9999,0
2004,4,14,23,14,2.4,286.35,9999,0
2004,4,14,24,13,2.2,285.85,9999,0
2004,4,15,1,13,2.7,285.65,9999,0
2004,4,15,2,15,3.2,285.55,9999,0
2004,4,15,3,15,1.9,284.25,9999,0
2004,4,15,4,16,2.5,283.45,9999,0
2004,4,15,5,16,2,282.95,9999,0
2004,4,15,6,15,1.2,283.05,9999,9
2004,4,15,7,16,1.7,285.35,9999,73
2004,4,15,8,1,2.8,286.85,9999,154
2004,4,15,9,2,3.4,288.25,9999,233
2004,4,15,10,2,3.5,288.65,9999,291
2004,4,15,11,3,3.7,289.65,9999,317
2004,4,15,12,4,3.3,288.45,9999,309
2004,4,15,13,3,3.3,288.55,9999,271
2004,4,15,14,4,2.7,288.35,9999,255
2004,4,15,15,4,2.9,288.95,9999,222
2004,4,15,16,6,2.7,289.45,9999,171
2004,4,15,17,6,2.7,289.85,9999,99
2004,4,15,18,5,2,287.85,9999,12
2004,4,15,19,2,1.4,285.95,9999,0
2004,4,15,20,1,1.8,284.75,9999,0
2004,4,15,21,1,1.5,284.55,9999,0
2004,4,15,22,15,1.2,284.15,9999,0
2004,4,15,23,16,1,284.15,9999,0
2004,4,15,24,1,1.5,284.35,9999,0
2004,4,16,1,16,1.3,283.45,9999,0
2004,4,16,2,3,1.4,283.95,9999,0
2004,4,16,3,16,1.5,283.15,9999,0
2004,4,16,4,1,.7,282.55,9999,0
2004,4,16,5,15,.7,282.05,9999,0
2004,4,16,6,0,0,282.45,9999,2
2004,4,16,7,7,1.9,283.95,9999,40
2004,4,16,8,8,2,286.25,9999,94
2004,4,16,9,8,1.8,289.65,9999,195
2004,4,16,10,8,4.2,292.25,9999,269
2004,4,16,11,8,5.6,292.55,9999,266
2004,4,16,12,7,5.7,292.95,9999,270
2004,4,16,13,8,6.3,292.95,9999,208
2004,4,16,14,7,7.1,292.95,9999,258
2004,4,16,15,8,7.5,292.65,9999,240
2004,4,16,16,7,6.9,292.25,9999,172
2004,4,16,17,8,6.9,291.45,9999,92
2004,4,16,18,8,5.5,290.25,9999,13
2004,4,16,19,8,4.4,289.55,9999,0
2004,4,16,20,8,3.9,289.05,9999,0
2004,4,16,21,8,3.5,288.45,9999,0
2004,4,16,22,7,4.2,288.15,9999,0
2004,4,16,23,8,4.5,288.85,9999,0
2004,4,16,24,8,3.4,288.65,9999,0
2004,4,17,1,8,4,288.05,9999,0
2004,4,17,2,9,2.5,287.15,9999,0
2004,4,17,3,9,2.2,286.15,9999,0
2004,4,17,4,8,3,286.65,9999,0
2004,4,17,5,9,2.2,285.55,9999,0
2004,4,17,6,9,2.5,285.45,9999,7
2004,4,17,7,10,3.6,289.25,9999,56
2004,4,17,8,10,4.5,292.55,9999,110
2004,4,17,9,10,4.1,294.75,9999,181
2004,4,17,10,10,4.1,297.45,9999,232
2004,4,17,11,11,3.1,298.15,9999,248
2004,4,17,12,9,4,298.65,9999,261
2004,4,17,13,10,2.8,298.45,9999,221
2004,4,17,14,13,2.7,299.05,9999,215
2004,4,17,15,12,3,299.25,9999,175
2004,4,17,16,10,3.4,299.45,9999,125
2004,4,17,17,2,3.8,294.05,9999,68
2004,4,17,18,2,2.7,292.65,9999,13
2004,4,17,19,2,3.8,289.95,9999,0
2004,4,17,20,3,6.2,288.35,9999,0
2004,4,17,21,2,3.3,286.55,9999,0
2004,4,17,22,2,3.8,285.85,9999,0
2004,4,17,23,2,3.2,285.45,9999,0
2004,4,17,24,2,3.1,284.95,9999,0
2004,4,18,1,2,2.9,284.55,9999,0
2004,4,18,2,2,2.5,284.35,9999,0
2004,4,18,3,1,2.1,284.25,9999,0
2004,4,18,4,1,1.8,283.55,9999,0
2004,4,18,5,14,1,282.85,9999,0
2004,4,18,6,13,1.4,283.15,9999,11
2004,4,18,7,16,2.6,284.55,9999,77
2004,4,18,8,16,2.6,286.35,9999,155
2004,4,18,9,15,2.6,288.35,9999,225
2004,4,18,10,16,2.7,289.45,9999,280
2004,4,18,11,7,2.1,290.15,9999,313
2004,4,18,12,6,4.2,292.25,9999,326
2004,4,18,13,8,5.1,293.15,9999,319
2004,4,18,14,7,6.1,292.85,9999,284
2004,4,18,15,7,5.8,292.95,9999,211
2004,4,18,16,7,5.2,292.05,9999,155
2004,4,18,17,7,5.5,291.95,9999,88
2004,4,18,18,8,4.8,291.05,9999,14
2004,4,18,19,8,3,290.15,9999,0
2004,4,18,20,8,2,289.95,9999,0
2004,4,18,21,8,4,290.45,9999,0
2004,4,18,22,9,4.2,290.55,9999,0
2004,4,18,23,8,2.6,289.95,9999,0
2004,4,18,24,8,2.1,289.35,9999,0
2004,4,19,1,6,1.1,288.65,9999,0
2004,4,19,2,8,2.8,287.05,9999,0
2004,4,19,3,8,2.9,286.85,9999,0
2004,4,19,4,8,2.9,287.45,9999,0
2004,4,19,5,8,2.8,288.65,9999,0
2004,4,19,6,8,3.1,290.05,9999,8
2004,4,19,7,8,3.9,290.85,9999,12
2004,4,19,8,8,3.6,291.65,9999,39
2004,4,19,9,8,4.1,291.75,9999,38
2004,4,19,10,8,3.8,292.55,9999,55
2004,4,19,11,8,5.1,293.15,9999,66
2004,4,19,12,8,5.5,293.55,9999,89
2004,4,19,13,8,5.3,293.55,9999,59
2004,4,19,14,8,4.9,293.25,9999,35
2004,4,19,15,8,5.3,292.85,9999,36
2004,4,19,16,8,6.3,292.55,9999,24
2004,4,19,17,8,6.3,292.15,9999,8
2004,4,19,18,8,5.5,291.55,9999,0
2004,4,19,19,8,6.9,291.45,9999,0
2004,4,19,20,7,5.4,291.15,9999,0
2004,4,19,21,8,5.2,291.25,9999,0
2004,4,19,22,8,4.2,291.35,9999,0
2004,4,19,23,8,3.4,291.15,9999,0
2004,4,19,24,8,2.9,290.85,9999,0
2004,4,20,1,7,4.5,291.15,9999,0
2004,4,20,2,7,8,291.15,9999,0
2004,4,20,3,7,8.8,291.35,9999,0
2004,4,20,4,8,9.3,291.45,9999,0
2004,4,20,5,8,6.1,292.05,9999,0
2004,4,20,6,8,3.6,292.05,9999,4
2004,4,20,7,9,2.5,292.25,9999,23
2004,4,20,8,11,2.6,291.95,9999,47
2004,4,20,9,10,4.4,293.35,9999,131
2004,4,20,10,12,3.2,293.05,9999,175
2004,4,20,11,11,3.9,295.45,9999,317
2004,4,20,12,12,3.2,297.75,9999,328
2004,4,20,13,11,2.5,299.05,9999,287
2004,4,20,14,9,2.6,299.55,9999,241
2004,4,20,15,7,4,300.05,9999,229
2004,4,20,16,7,3.5,298.95,9999,154
2004,4,20,17,7,3.7,297.75,9999,80
2004,4,20,18,8,2.6,296.75,9999,11
2004,4,20,19,13,1.9,296.35,9999,0
2004,4,20,20,15,3.3,293.25,9999,0
2004,4,20,21,16,3.3,290.95,9999,0
2004,4,20,22,13,7.1,291.65,9999,0
2004,4,20,23,16,2.9,289.55,9999,0
2004,4,20,24,14,3.5,289.75,9999,0
2004,4,21,1,14,4.6,288.45,9999,0
2004,4,21,2,1,2.2,284.55,9999,0
2004,4,21,3,1,1.5,284.15,9999,0
2004,4,21,4,3,.9,283.25,9999,0
2004,4,21,5,7,.9,281.95,9999,0
2004,4,21,6,9,1,283.85,9999,16
2004,4,21,7,6,1.1,285.55,9999,79
2004,4,21,8,7,2.5,288.65,9999,163
2004,4,21,9,7,2.3,290.75,9999,235
2004,4,21,10,7,3.8,292.45,9999,293
2004,4,21,11,8,5,293.25,9999,330
2004,4,21,12,7,5.8,293.45,9999,341
2004,4,21,13,8,6.8,294.75,9999,324
2004,4,21,14,7,6.9,294.35,9999,289
2004,4,21,15,8,7.3,294.15,9999,234
2004,4,21,16,7,6,294.75,9999,168
2004,4,21,17,8,5.9,293.25,9999,89
2004,4,21,18,8,5.3,291.55,9999,13
2004,4,21,19,7,3.2,290.05,9999,0
2004,4,21,20,8,3.3,290.15,9999,0
2004,4,21,21,7,2.5,290.15,9999,0
2004,4,21,22,8,3,289.35,9999,0
2004,4,21,23,8,2.3,288.65,9999,0
2004,4,21,24,7,1.3,288.25,9999,0
2004,4,22,1,8,1.2,287.55,9999,0
2004,4,22,2,6,2,287.45,9999,0
2004,4,22,3,5,1.2,286.35,9999,0
2004,4,22,4,6,2,285.75,9999,0
2004,4,22,5,6,1.6,285.45,9999,0
2004,4,22,6,11,.6,286.35,9999,12
2004,4,22,7,10,.6,288.65,9999,50
2004,4,22,8,12,1,290.25,9999,135
2004,4,22,9,11,2.1,292.45,9999,214
2004,4,22,10,9,3,295.65,9999,268
2004,4,22,11,7,2.4,297.15,9999,303
2004,4,22,12,7,4.3,298.65,9999,315
2004,4,22,13,7,4.7,298.05,9999,303
2004,4,22,14,7,5.3,298.15,9999,273
2004,4,22,15,7,4.9,299.45,9999,220
2004,4,22,16,8,4.1,297.95,9999,144
2004,4,22,17,7,3.8,295.95,9999,79
2004,4,22,18,7,3.2,296.55,9999,14
2004,4,22,19,9,4.5,297.45,9999,0
2004,4,22,20,10,6.6,295.95,9999,0
2004,4,22,21,10,5.5,295.35,9999,0
2004,4,22,22,10,4.7,294.35,9999,0
2004,4,22,23,10,3.1,293.75,9999,0
2004,4,22,24,8,2,293.15,9999,0
2004,4,23,1,2,2.5,288.35,9999,0
2004,4,23,2,16,2.2,285.45,9999,0
2004,4,23,3,1,1.8,285.05,9999,0
2004,4,23,4,16,1.3,285.15,9999,0
2004,4,23,5,1,1.8,284.85,9999,0
2004,4,23,6,2,1.9,283.95,9999,2
2004,4,23,7,2,1.7,284.75,9999,32
2004,4,23,8,1,1.5,285.75,9999,104
2004,4,23,9,16,2,288.35,9999,94
2004,4,23,10,16,4.8,285.85,9999,84
2004,4,23,11,1,3.6,285.35,9999,62
2004,4,23,12,1,4.2,285.45,9999,152
2004,4,23,13,2,5,286.35,9999,131
2004,4,23,14,1,5.1,285.05,9999,127
2004,4,23,15,2,5.6,285.95,9999,219
2004,4,23,16,1,4.8,285.65,9999,138
2004,4,23,17,1,5.1,285.35,9999,64
2004,4,23,18,1,4.8,284.55,9999,7
2004,4,23,19,1,4.7,284.35,9999,0
2004,4,23,20,1,4,284.15,9999,0
2004,4,23,21,16,4.8,283.65,9999,0
2004,4,23,22,16,4.8,283.35,9999,0
2004,4,23,23,16,4.4,283.25,9999,0
2004,4,23,24,16,2.9,283.25,9999,0
2004,4,24,1,1,3.1,283.25,9999,0
2004,4,24,2,1,1.1,282.95,9999,0
2004,4,24,3,11,1.1,282.45,9999,0
2004,4,24,4,0,0,281.85,9999,0
2004,4,24,5,7,.6,281.35,9999,0
2004,4,24,6,0,0,281.45,9999,-1
2004,4,24,7,4,1.4,283.95,9999,-1
2004,4,24,8,1,1.9,285.15,9999,-1
2004,4,24,9,5,1.6,285.95,9999,-1
2004,4,24,10,2,2.5,286.65,9999,-1
2004,4,24,11,2,2.4,286.65,9999,-1
2004,4,24,12,3,2.6,287.15,9999,-1
2004,4,24,13,4,3.5,287.45,9999,-1
2004,4,24,14,3,3.8,286.65,9999,-1
2004,4,24,15,4,2.4,286.15,9999,-1
2004,4,24,16,6,3.5,286.55,9999,-1
2004,4,24,17,4,1.4,285.55,9999,-1
2004,4,24,18,1,3.5,283.95,9999,-1
2004,4,24,19,2,2.1,282.75,9999,-1
2004,4,24,20,3,1.6,282.35,9999,-1
2004,4,24,21,4,1.3,281.85,9999,-1
2004,4,24,22,0,0,280.55,9999,-1
2004,4,24,23,0,0,279.45,9999,-1
2004,4,24,24,10,1,279.05,9999,-1
2004,4,25,1,11,1.1,278.45,9999,-1
2004,4,25,2,12,2.1,278.75,9999,-1
2004,4,25,3,11,1.9,278.45,9999,-1
2004,4,25,4,10,1.5,278.85,9999,-1
2004,4,25,5,14,2.9,278.55,9999,-1
2004,4,25,6,14,2.4,279.65,9999,-1
2004,4,25,7,13,4.1,281.85,9999,-1
2004,4,25,8,13,3.8,283.65,9999,-1
2004,4,25,9,13,5,284.85,9999,-1
2004,4,25,10,13,4,285.75,9999,-1
2004,4,25,11,14,2.8,286.45,9999,-1
2004,4,25,12,14,2.5,287.75,9999,-1
2004,4,25,13,3,1.8,289.25,9999,-1
2004,4,25,14,1,2.5,289.85,9999,-1
2004,4,25,15,4,4.3,289.25,9999,-1
2004,4,25,16,8,5.2,288.95,9999,-1
2004,4,25,17,8,6.8,288.85,9999,-1
2004,4,25,18,8,6.5,287.15,9999,-1
2004,4,25,19,8,5.2,286.95,9999,-1
2004,4,25,20,8,5.1,286.75,9999,-1
2004,4,25,21,8,5.7,286.55,9999,-1
2004,4,25,22,8,5.2,286.35,9999,-1
2004,4,25,23,9,4.4,285.75,9999,-1
2004,4,25,24,10,4.1,286.25,9999,-1
2004,4,26,1,10,2.4,286.25,9999,-1
2004,4,26,2,10,2.6,285.85,9999,-1
2004,4,26,3,11,2,285.35,9999,-1
2004,4,26,4,11,2.1,285.05,9999,-1
2004,4,26,5,11,1.5,283.55,9999,-1
2004,4,26,6,13,1.7,282.95,9999,-1
2004,4,26,7,11,1,285.75,9999,-1
2004,4,26,8,13,2,288.85,9999,-1
2004,4,26,9,13,2.1,290.65,9999,-1
2004,4,26,10,12,2,292.25,9999,-1
2004,4,26,11,3,1.6,293.25,9999,-1
2004,4,26,12,5,4.9,292.65,9999,-1
2004,4,26,13,4,4.6,289.95,9999,-1
2004,4,26,14,4,3.6,289.35,9999,-1
2004,4,26,15,4,4.4,289.05,9999,-1
2004,4,26,16,5,3.9,289.25,9999,-1
2004,4,26,17,4,4.1,288.35,9999,-1
2004,4,26,18,4,2.9,287.85,9999,-1
2004,4,26,19,5,2.1,287.75,9999,-1
2004,4,26,20,6,2.5,287.85,9999,-1
2004,4,26,21,7,2.6,287.25,9999,-1
2004,4,26,22,6,2.7,286.65,9999,-1
2004,4,26,23,8,5.9,288.05,9999,-1
2004,4,26,24,8,5.1,290.15,9999,-1
2004,4,27,1,8,5.3,290.05,9999,-1
2004,4,27,2,8,6.3,290.15,9999,-1
2004,4,27,3,7,6.1,289.95,9999,-1
2004,4,27,4,7,6.3,289.65,9999,-1
2004,4,27,5,8,5.7,289.55,9999,-1
2004,4,27,6,8,4.2,289.25,9999,-1
2004,4,27,7,8,2.9,289.55,9999,-1
2004,4,27,8,8,3.9,289.75,9999,-1
2004,4,27,9,8,6.2,289.35,9999,-1
2004,4,27,10,8,6.1,289.65,9999,-1
2004,4,27,11,7,7.5,291.05,9999,-1
2004,4,27,12,8,8,291.05,9999,-1
2004,4,27,13,8,7.8,291.35,9999,18
2004,4,27,14,8,10.4,291.75,9999,18
2004,4,27,15,8,11.5,291.75,9999,25
2004,4,27,16,8,10.9,291.75,9999,22
2004,4,27,17,8,10.6,291.95,9999,18
2004,4,27,18,8,10.9,292.35,9999,0
2004,4,27,19,8,9.1,292.45,9999,0
2004,4,27,20,8,9.5,292.35,9999,0
2004,4,27,21,9,8.5,293.55,9999,0
2004,4,27,22,9,6.9,293.15,9999,0
2004,4,27,23,9,7.4,292.85,9999,0
2004,4,27,24,9,6.2,292.25,9999,0
2004,4,28,1,9,5.9,291.75,9999,0
2004,4,28,2,9,5.8,291.65,9999,0
2004,4,28,3,8,7.5,290.75,9999,0
2004,4,28,4,8,8,290.55,9999,0
2004,4,28,5,8,4.6,289.65,9999,0
2004,4,28,6,9,4.4,289.55,9999,21
2004,4,28,7,10,4.8,289.85,9999,89
2004,4,28,8,10,4.8,290.85,9999,179
2004,4,28,9,11,2.6,286.25,9999,121
2004,4,28,10,1,3.9,285.35,9999,160
2004,4,28,11,1,4.2,283.75,9999,56
2004,4,28,12,2,3.7,283.65,9999,121
2004,4,28,13,16,5,283.35,9999,303
2004,4,28,14,1,4.6,284.15,9999,237
2004,4,28,15,2,3.3,285.15,9999,189
2004,4,28,16,1,2.1,285.85,9999,117
2004,4,28,17,2,2.2,284.95,9999,39
2004,4,28,18,4,1.2,284.75,9999,17
2004,4,28,19,2,1.5,284.15,9999,0
2004,4,28,20,1,1.7,283.45,9999,0
2004,4,28,21,2,1.1,283.05,9999,0
2004,4,28,22,1,1,283.05,9999,0
2004,4,28,23,7,.7,282.05,9999,0
2004,4,28,24,8,1.1,281.65,9999,0
2004,4,29,1,0,0,281.85,9999,0
2004,4,29,2,0,0,281.75,9999,0
2004,4,29,3,0,0,281.15,9999,0
2004,4,29,4,15,.6,281.15,9999,0
2004,4,29,5,16,1.3,280.95,9999,0
2004,4,29,6,15,1,282.65,9999,19
2004,4,29,7,15,1.8,284.55,9999,98
2004,4,29,8,16,1.8,286.55,9999,177
2004,4,29,9,14,3,288.35,9999,253
2004,4,29,10,16,3.3,290.25,9999,310
2004,4,29,11,16,3,291.05,9999,344
2004,4,29,12,2,2.9,291.25,9999,353
2004,4,29,13,2,2.7,292.55,9999,344
2004,4,29,14,3,2.2,292.85,9999,310
2004,4,29,15,4,2.7,291.75,9999,257
2004,4,29,16,3,3,290.55,9999,188
2004,4,29,17,6,2.4,289.85,9999,106
2004,4,29,18,6,3.1,288.25,9999,11
2004,4,29,19,7,2.2,287.15,9999,0
2004,4,29,20,7,1.6,286.35,9999,0
2004,4,29,21,6,2.1,285.55,9999,0
2004,4,29,22,7,2,284.55,9999,0
2004,4,29,23,8,1.7,283.65,9999,0
2004,4,29,24,7,2,283.65,9999,0
2004,4,30,1,7,2.3,283.95,9999,0
2004,4,30,2,7,2.4,284.75,9999,0
2004,4,30,3,8,2.7,283.65,9999,0
2004,4,30,4,8,2.4,284.75,9999,0
2004,4,30,5,8,2.2,283.25,9999,0
2004,4,30,6,7,2.2,285.75,9999,19
2004,4,30,7,9,3.3,288.75,9999,83